{"data":{"norad_id":64007,"epoch":"2026-09-20T21:45:02.693088Z","epoch_age_seconds":108438,"freshness":"FRESH","line1":"1 64007U 25101P   26263.90628117  .00011599  00000+0  43018-3 0  9992","line2":"2 64007  43.0019 335.2597 0001438 270.2780  89.7907 15.27593454 76910","mean_motion":15.27593454,"eccentricity":0.0001438,"inclination_deg":43.0019,"raan_deg":335.2597,"arg_perigee_deg":270.278,"mean_anomaly_deg":89.7907,"bstar":0.00043018,"rev_number":7691,"period_min":94.265918476501,"perigee_km":482.02217745177,"apogee_km":483.99544298679,"semimajor_km":6861.1458102193,"source":"CELESTRAK","updated_at":"2026-09-21T09:00:35.182372Z"}}